AirNav   ProFlight Series 2 Aviation Headset
 
 1512 users online  

5B4 Bowbells Municipal Airport
Bowbells, North Dakota, USA

GOING TO BOWBELLS?


FAA INFORMATION EFFECTIVE 16 JULY 2020

Location

FAA Identifier: 5B4
Lat/Long: 48-48-35.0980N 102-14-43.6020W
48-48.584967N 102-14.726700W
48.8097494,-102.2454450
(estimated)
Elevation: 1955 ft. / 596 m (estimated)
Variation: 11E (1985)
From city: 1 mile N of BOWBELLS, ND
Time zone: UTC -5 (UTC -6 during Standard Time)
Zip code: 58721

Airport Operations

Airport use: Open to the public
Activation date: 04/1969
Control tower: no
ARTCC: MINNEAPOLIS CENTER
FSS: GRAND FORKS FLIGHT SERVICE STATION
NOTAMs facility: GFK (NOTAM-D service available)
Attendance: UNATNDD
Wind indicator: yes
Segmented circle: no

Airport Communications

CTAF: 122.9

Airport Services

Parking: tiedowns
Airframe service: NONE
Powerplant service: NONE
Bottled oxygen: NONE
Bulk oxygen: NONE

Runway Information

Runway 8/26

Dimensions: 2900 x 200 ft. / 884 x 61 m
Surface: turf, in fair condition
Runway edge markings: RWY 08/26 MKD WITH DALGT BDRY 3 FT METAL MRKS.
RUNWAY 8  RUNWAY 26
Latitude: 48-48.568333N48-48.601500N
Longitude: 102-15.226667W102-14.506333W
Elevation: 1955.0 ft.1950.0 ft.
Traffic pattern: leftleft
Displaced threshold: no460 ft.
DSPLCD THR MKD ONLY WITH DALGT BOUNDARY 3' METAL MARKERS.
Markings: NSTDNSTD
Obstructions: 40 ft. trees, 495 ft. from runway, 170 ft. left and right of centerline, 12:1 slope to clear29 ft. rr, 100 ft. from runway, 135 ft. left and right of centerline, 3:1 slope to clear
+28 FT RAILROAD 520 FT FM DSPLCD THLD; 175 FT L/R CNTRLN; 18:1 APCH SLOPE.

Airport Ownership and Management from official FAA records

Ownership: Publicly-owned
Owner: CITY OF BOWBELLS
P.O. BOX 125
BOWBELLS, ND 58721
Phone 701-377-2902
Manager: WAYNE JACOBSON
PO BOX 173
BOWBELLS, ND 58721
Phone 701-339-1574
ADD'L CONTACT, BRUCE ANDERSON 701-377-2984.

Airport Operational Statistics

Aircraft based on the field: 1
Single engine airplanes: 1
    
Aircraft operations: avg 30/month *
42% transient general aviation
28% local general aviation
28% military
3% air taxi
* for 12-month period ending 03 September 2019

Additional Remarks

RY IREG & SOFT WHEN WET WITH WATER PONDING POSSIBLE.
IREG SNOW REMOVAL; CFM RY COND PRIOR TO USE; CALL (701) 339-1574 OR 701-377-2731.
TWY SOFT WHEN WET WITH 1 INCH DRAINAGE SWALE.
+35 FT TREES PENETRATE TRSNL SFC LCTD 150 FT L OF CNTRLN AT RWY 26 STARTING AT THR INWARD BY 400 FT PARL TO RWY.
FOR CD CTC MINNEAPOLIS ARTCC AT 651-463-5588.

Instrument Procedures

There are no published instrument procedures at 5B4.

Some nearby airports with instrument procedures:

7K5 - Kenmare Municipal Airport (12 nm SE)
KHBC - Mohall Municipal Airport (28 nm E)
08D - Stanley Municipal Airport (31 nm S)
D60 - Tioga Municipal Airport (37 nm SW)
D50 - Crosby Municipal Airport (42 nm W)
 
Loc | Ops | Rwys | IFR | FBO | Links
Com | Nav | Svcs | Stats | Notes

Bismarck Aero Center
AirBoss

 
Area around 5B4 (Bowbells Municipal Airport)
 
Road maps at: MapQuest Bing Google
 
Aerial photo
WARNING: Photo may not be current or correct
Aerial photo of 5B4 (Bowbells Municipal Airport)
Do you have a better or more recent aerial photo of Bowbells Municipal Airport that you would like to share? If so, please send us your photo.

 
Sectional chart

 
Airport distance calculator
Flying to Bowbells Municipal Airport? Find the distance to fly.

From to 5B4

Sunrise and sunset
Times for 04-Aug-2020
 Local
(UTC-5)
 Zulu
(UTC)
Morning civil twilight05:5210:52
Sunrise06:2911:29
Sunset21:2102:21
Evening civil twilight21:5702:57

Current date and time
Zulu (UTC)  04-Aug-2020 17:23:47
Local (UTC-5)  04-Aug-2020 12:23:47
 
METAR
K08D 
31nm S 
041655Z AUTO 15011G18KT 10SM CLR 19/16 A3003 RMK AO2
KD60 
37nm SW 
041655Z AUTO 17012G18KT 10SM FEW080 19/15 A3004 RMK AO2
CYEN 
37nm NW 
041706Z AUTO 17009G15KT 9SM -RA FEW110 SCT140 20/15 A3000 RMK SLP165 DENSITY ALT 2700FT
KD50 
42nm W 
041655Z AUTO 18011KT 10SM CLR 19/15 A3002 RMK AO2
KMIB 
43nm SE 
041656Z AUTO 16012KT 10SM -DZ FEW130 21/12 A3001 RMK AO2 DZB53 SLP167 P0000 T02050117 $
TAF
CYEN 
37nm NW 
041315Z 0413/0424 10008KT P6SM SCT050 BKN120 TEMPO 0413/0415 5SM -SHRA BR BKN050CB OVC120 FM041500 13012KT P6SM SCT050 BKN200 TEMPO 0415/0420 BKN050 OVC200 BECMG 0416/0418 20015G25KT FM042000 21010KT P6SM OVC060 PROB40 0420/0424 VRB20G30KT 4SM TSRA OVC040CB RMK FCST BASED ON AUTO OBS. NXT FCST BY 041800Z
KMIB 
43nm SE 
040900Z 0409/0515 15009KT 9999 SCT060 BKN120 QNH3001INS BECMG 0418/0419 15012KT 9000 -SHRA BKN060 BKN100 QNH2995INS BECMG 0421/0422 24009KT 9999 NSW FEW060 SCT100 QNH2990INS BECMG 0501/0502 24009KT 9999 FEW080 FEW120 QNH2996INS TX25/0421Z TN09/0411Z
NOTAMs
Click for the latest NOTAMs
NOTAMs are issued by the DoD/FAA and will open in a separate window not controlled by AirNav.

 

 
 

Would you like to see your business listed on this page?

 If your business provides an interesting product or service to pilots, flight crews, aircraft, or users of the Bowbells Municipal Airport, you should consider listing it here.  To start the listing process, click on the button below
 
Add a business
 

Other Pages about Bowbells Municipal Airport

Update a link
 
Copyright © AirNav, LLC. All rights reserved. Privacy Policy  Contact